JE4YIZ-13 Weather Reports


Display with metric or nautical units.
time (UTC)temp
F
wind
direction
speed
MPH
gust
MPH
rain 1hr
in
rain 24hr
in
rain mn
in
humidity
%
barometer
mb
20260903160022 74 177 0.0 1.0 0.00 1.14 0.00 89 1007.5
20260903155531 74 177 0.0 1.0 0.00 1.14 0.00 89 1007.5
20260903155036 74 177 0.0 2.0 0.00 1.14 0.00 89 1007.5
20260903154525 74 177 0.0 2.0 0.00 1.14 0.00 89 1007.6
20260903154031 74 177 1.0 2.0 0.00 1.14 0.00 89 1007.7
20260903153542 74 178 1.0 2.0 0.00 1.14 0.00 89 1007.7
20260903153022 74 177 1.0 2.0 0.00 1.14 0.00 89 1007.8
20260903152534 74 177 0.0 2.0 0.00 1.14 0.00 89 1007.6
20260903152016 74 183 1.0 2.0 0.00 1.14 0.00 89 1007.7
20260903151526 74 184 1.0 2.0 0.00 1.14 0.00 89 1007.7
20260903151034 74 188 1.0 2.0 0.00 1.14 0.00 88 1007.7
20260903150517 74 172 1.0 3.0 0.00 1.14 0.00 88 1007.7
20260903145515 74 175 0.0 3.0 0.00 1.14 0.23 88 1007.7
20260903145046 74 187 1.0 3.0 0.00 1.14 0.23 88 1007.6
20260903144535 74 178 1.0 2.0 0.00 1.14 0.23 88 1007.6
20260903144018 74 176 0.0 3.0 0.00 1.14 0.23 88 1007.6
20260903143519 74 187 2.0 2.0 0.00 1.14 0.23 88 1007.7
20260903143028 74 169 0.0 1.0 0.00 1.14 0.23 88 1007.8
20260903142534 74 169 0.0 1.0 0.00 1.14 0.23 88 1007.7
20260903142018 74 169 0.0 1.0 0.00 1.14 0.23 88 1007.7
20260903141528 74 169 0.0 1.0 0.00 1.14 0.23 88 1007.7
20260903141039 74 169 0.0 1.0 0.00 1.14 0.23 88 1007.7
20260903140545 74 169 0.0 1.0 0.00 1.14 0.23 88 1007.8
20260903140053 74 179 0.0 0.0 0.00 1.14 0.23 88 1007.9
20260903135516 74 179 0.0 1.0 0.00 1.14 0.23 88 1008.1
20260903135038 74 179 0.0 1.0 0.00 1.14 0.23 88 1008.0
20260903134523 74 179 0.0 1.0 0.00 1.14 0.23 88 1008.0
20260903134032 74 179 0.0 0.0 0.00 1.14 0.23 88 1008.0
20260903133543 74 179 0.0 1.0 0.00 1.14 0.23 88 1008.1
20260903133025 73 179 0.0 2.0 0.00 1.14 0.23 88 1008.2
20260903132516 73 179 1.0 2.0 0.00 1.14 0.23 88 1008.2
20260903132025 73 179 0.0 2.0 0.00 1.14 0.23 88 1008.1
20260903131015 73 173 1.0 3.0 0.00 1.14 0.23 88 1008.1
20260903130531 73 183 1.0 3.0 0.00 1.14 0.23 88 1008.1
20260903130038 73 183 0.0 3.0 0.00 1.14 0.23 88 1008.2
20260903125519 73 185 1.0 4.0 0.00 1.14 0.23 88 1008.2
20260903125050 73 189 1.0 3.0 0.00 1.14 0.23 88 1008.3
20260903124537 73 198 1.0 3.0 0.00 1.14 0.23 88 1008.3
20260903124020 73 195 2.0 3.0 0.00 1.14 0.23 88 1008.4
20260903123519 74 177 0.0 1.0 0.00 1.14 0.23 88 1008.5
20260903123023 74 177 0.0 2.0 0.00 1.14 0.23 88 1008.5
20260903122531 74 178 1.0 2.0 0.00 1.14 0.23 88 1008.4
20260903121530 74 188 1.0 3.0 0.00 1.14 0.23 88 1008.3
20260903121101 74 194 2.0 5.0 0.00 1.14 0.23 88 1008.3
20260903121023 74 194 2.0 5.0 0.00 1.14 0.23 88 1008.3
20260903120531 74 219 2.0 5.0 0.00 1.14 0.23 88 1008.3
20260903120037 74 181 2.0 4.0 0.00 1.14 0.23 88 1008.3
20260903115540 74 338 2.0 4.0 0.00 1.14 0.23 88 1008.3
20260903115023 74 138 1.0 4.0 0.00 1.14 0.23 89 1008.2
20260903114532 74 138 0.0 3.0 0.00 1.14 0.23 89 1008.3
20260903114039 74 175 0.0 4.0 0.00 1.14 0.23 88 1008.5
20260903113523 74 174 1.0 5.0 0.00 1.14 0.23 88 1008.4
20260903113028 74 177 1.0 5.0 0.00 1.14 0.23 88 1008.4
20260903112540 74 183 2.0 5.0 0.04 1.14 0.23 88 1008.4
20260903112020 74 165 1.0 2.0 0.04 1.14 0.23 88 1008.3
20260903111530 74 171 0.0 1.0 0.04 1.14 0.23 88 1008.3
20260903111026 74 170 0.0 3.0 0.04 1.14 0.23 88 1008.3
20260903110536 74 185 1.0 3.0 0.08 1.14 0.23 88 1008.2
20260903110043 74 131 0.0 1.0 0.08 1.14 0.23 88 1008.2
20260903105523 74 160 0.0 3.0 0.12 1.14 0.23 88 1008.5
20260903105031 74 174 1.0 4.0 0.16 1.14 0.23 88 1008.5
20260903104539 74 169 1.0 3.0 0.20 1.14 0.23 87 1008.5
20260903104020 74 188 1.0 4.0 0.24 1.14 0.23 87 1008.5
20260903103526 74 204 1.0 6.0 0.24 1.14 0.23 87 1008.5
20260903103054 74 188 3.0 6.0 0.28 1.14 0.23 87 1008.4
20260903102516 74 184 2.0 3.0 0.24 1.10 0.22 87 1008.4
20260903102043 74 176 0.0 3.0 0.24 1.10 0.22 87 1008.4
20260903101524 74 175 1.0 2.0 0.28 1.10 0.22 87 1008.4
20260903101032 74 174 1.0 2.0 0.31 1.06 0.21 87 1008.4
20260903100543 74 174 0.0 2.0 0.35 1.06 0.21 86 1008.5
20260903100044 74 172 0.0 3.0 0.39 1.02 0.20 86 1008.5
20260903095548 74 181 1.0 4.0 0.47 1.02 0.20 86 1008.5
20260903095037 74 191 1.0 4.0 0.43 0.98 0.20 86 1008.4
20260903094520 74 179 1.0 2.0 0.43 0.94 0.19 86 1008.3
20260903094027 74 148 1.0 3.0 0.47 0.91 0.18 86 1008.4
20260903093537 74 172 1.0 3.0 0.51 0.91 0.18 86 1008.4
20260903093015 74 179 1.0 3.0 0.51 0.87 0.17 86 1008.5
20260903092516 75 178 1.0 3.0 0.55 0.87 0.17 86 1008.6
20260903092043 75 194 1.0 2.0 0.55 0.83 0.17 86 1008.5
20260903091523 75 179 1.0 3.0 0.59 0.83 0.17 86 1008.5
20260903091033 75 120 1.0 3.0 0.55 0.75 0.15 86 1008.6
20260903090541 75 150 1.0 3.0 0.47 0.67 0.13 86 1008.5
20260903090020 75 158 0.0 2.0 0.43 0.63 0.13 86 1008.3
20260903085529 75 112 1.0 3.0 0.39 0.55 0.11 86 1008.3
20260903085038 76 114 1.0 3.0 0.39 0.55 0.11 86 1008.3
20260903084539 76 99 2.0 3.0 0.39 0.51 0.10 86 1008.4
20260903084022 76 130 0.0 1.0 0.31 0.43 0.09 86 1008.5
20260903083531 76 131 0.0 1.0 0.28 0.39 0.08 86 1008.6
20260903083039 76 127 0.0 1.0 0.24 0.35 0.07 86 1008.8
20260903082520 76 146 0.0 3.0 0.20 0.31 0.06 86 1008.7
20260903082028 76 167 0.0 3.0 0.20 0.28 0.06 85 1008.6
20260903081537 76 166 1.0 2.0 0.16 0.24 0.05 85 1008.6
20260903081018 76 143 0.0 2.0 0.12 0.20 0.04 85 1008.6
20260903080543 76 190 1.0 3.0 0.16 0.20 0.04 84 1008.6
20260903080023 76 159 0.0 1.0 0.16 0.20 0.04 84 1008.8
20260903075531 76 141 0.0 3.0 0.12 0.16 0.03 84 1008.8
20260903075042 77 107 0.0 3.0 0.12 0.16 0.03 83 1008.7
20260903074544 77 112 1.0 2.0 0.08 0.12 0.02 84 1008.8
20260903074029 77 153 0.0 1.0 0.08 0.12 0.02 83 1008.7
20260903073539 77 153 0.0 2.0 0.12 0.12 0.02 83 1008.7
20260903073016 77 132 0.0 3.0 0.12 0.12 0.02 82 1008.7
20260903072542 77 133 1.0 3.0 0.12 0.12 0.02 82 1008.7
20260903072022 77 121 2.0 4.0 0.08 0.08 0.02 82 1008.8
20260903071522 77 71 2.0 4.0 0.08 0.08 0.02 82 1008.7
20260903071031 77 120 1.0 5.0 0.08 0.08 0.02 82 1008.7
20260903070540 77 91 2.0 5.0 0.04 0.04 0.01 82 1008.6
20260903070021 77 75 2.0 5.0 0.04 0.04 0.01 81 1008.7
20260903065529 77 76 3.0 4.0 0.04 0.04 0.01 81 1008.7
20260903065033 77 72 2.0 4.0 0.04 0.04 0.01 80 1008.7
20260903064542 77 120 2.0 5.0 0.04 0.04 0.01 80 1008.7
20260903064023 78 86 2.0 6.0 0.04 0.04 0.01 80 1008.7
20260903063533 78 76 2.0 6.0 0.00 0.00 0.00 79 1008.7
20260903063040 78 142 1.0 6.0 0.00 0.00 0.00 79 1008.7
20260903062520 78 54 3.0 6.0 0.00 0.00 0.00 79 1008.7
20260903062028 78 58 4.0 8.0 0.00 0.00 0.00 78 1008.7
20260903061545 78 58 4.0 8.0 0.00 0.00 0.00 78 1008.7
20260903061055 78 46 3.0 9.0 0.00 0.00 0.00 77 1008.6
20260903060538 78 115 3.0 8.0 0.00 0.00 0.00 77 1008.6
20260903060017 79 307 4.0 11.0 0.00 0.00 0.00 75 1008.7
20260903055525 79 52 4.0 11.0 0.00 0.00 0.00 75 1008.8
20260903055036 79 40 3.0 7.0 0.00 0.00 0.00 73 1008.8
20260903054519 80 96 4.0 9.0 0.00 0.00 0.00 70 1008.8
20260903054048 80 49 5.0 9.0 0.00 0.00 0.00 70 1008.8
20260903053534 81 72 5.0 11.0 0.00 0.00 0.00 69 1008.9
20260903053041 81 48 6.0 11.0 0.00 0.00 0.00 68 1009.0
20260903052523 81 47 5.0 10.0 0.00 0.00 0.00 68 1008.9
20260903052029 81 47 4.0 10.0 0.00 0.00 0.00 67 1009.1
20260903051539 82 356 4.0 11.0 0.00 0.00 0.00 68 1009.0
20260903051041 82 58 6.0 11.0 0.00 0.00 0.00 68 1009.1
20260903050523 82 28 5.0 11.0 0.00 0.00 0.00 68 1009.1
20260903050027 82 67 4.0 10.0 0.00 0.00 0.00 69 1009.1
20260903045537 82 41 4.0 11.0 0.00 0.00 0.00 70 1009.1
20260903045017 82 309 5.0 11.0 0.00 0.00 0.00 70 1009.1
20260903044525 82 68 4.0 10.0 0.00 0.00 0.00 70 1009.0
20260903044035 82 70 6.0 11.0 0.00 0.00 0.00 69 1009.1
20260903043540 82 4 4.0 12.0 0.00 0.00 0.00 68 1009.0
20260903043019 82 57 4.0 12.0 0.00 0.00 0.00 67 1009.0
20260903042528 82 37 5.0 11.0 0.00 0.00 0.00 67 1008.8
20260903042033 83 348 4.0 13.0 0.00 0.00 0.00 67 1008.8
20260903041516 82 32 7.0 13.0 0.00 0.00 0.00 66 1008.8
20260903041024 82 39 6.0 12.0 0.00 0.00 0.00 65 1008.7
20260903040535 83 343 6.0 13.0 0.00 0.00 0.00 65 1008.8
20260903035520 83 30 8.0 15.0 0.00 0.00 0.00 63 1008.9
20260903035029 84 49 6.0 12.0 0.00 0.00 0.00 64 1008.9
20260903034518 83 49 7.0 13.0 0.00 0.00 0.00 65 1009.0
20260903034018 83 47 7.0 15.0 0.00 0.00 0.00 68 1009.0
20260903033549 83 1 7.0 14.0 0.00 0.00 0.00 69 1009.0
20260903033033 84 40 7.0 13.0 0.00 0.00 0.00 72 1009.0
20260903032541 84 77 5.0 14.0 0.00 0.00 0.00 72 1008.9
20260903032021 84 356 4.0 14.0 0.00 0.00 0.00 71 1009.0
20260903031531 84 79 5.0 14.0 0.00 0.00 0.00 70 1008.9
20260903031034 84 39 6.0 14.0 0.00 0.00 0.00 69 1009.0
20260903030543 84 22 4.0 11.0 0.00 0.00 0.00 74 1008.9
20260903030024 84 56 6.0 14.0 0.00 0.00 0.00 73 1008.9
20260903025532 85 25 6.0 14.0 0.00 0.00 0.00 73 1008.9
20260903025042 85 31 8.0 17.0 0.00 0.00 0.00 73 1008.8
20260903024520 85 333 10.0 17.0 0.00 0.00 0.00 75 1008.9
20260903024018 85 20 8.0 15.0 0.00 0.00 0.00 76 1008.9
20260903023525 85 79 7.0 15.0 0.00 0.00 0.00 76 1008.9
20260903023054 85 32 8.0 15.0 0.00 0.00 0.00 75 1008.9
20260903022542 86 42 7.0 17.0 0.00 0.00 0.00 75 1009.0
20260903022021 87 73 7.0 15.0 0.00 0.00 0.00 74 1009.1
20260903021531 87 49 6.0 11.0 0.00 0.00 0.00 73 1009.0
20260903021040 86 91 6.0 14.0 0.00 0.00 0.00 72 1009.1
20260903020523 86 77 8.0 14.0 0.00 0.00 0.00 71 1009.1
20260903020049 86 72 6.0 12.0 0.00 0.00 0.00 73 1009.2
20260903015533 86 5 4.0 7.0 0.00 0.00 0.00 74 1009.2
20260903015041 85 62 5.0 8.0 0.00 0.00 0.00 74 1009.2
20260903014523 86 42 5.0 9.0 0.00 0.00 0.00 73 1009.3
20260903014030 86 127 5.0 9.0 0.00 0.00 0.00 73 1009.2
20260903013540 86 101 2.0 8.0 0.00 0.00 0.00 74 1009.2
20260903013020 86 91 2.0 8.0 0.00 0.00 0.00 73 1009.3
20260903012552 86 50 5.0 8.0 0.00 0.00 0.00 73 1009.2
20260903012036 86 78 3.0 6.0 0.00 0.00 0.00 73 1009.2
20260903011537 86 167 3.0 6.0 0.00 0.00 0.00 73 1009.2
20260903011025 86 68 2.0 9.0 0.00 0.00 0.00 73 1009.1
20260903010536 86 119 2.0 9.0 0.00 0.00 0.00 73 1009.1
20260903010015 86 94 3.0 10.0 0.00 0.00 0.00 73 1009.1
20260903005524 86 86 5.0 10.0 0.00 0.00 0.00 73 1009.1
20260903005032 86 46 3.0 7.0 0.00 0.00 0.00 73 1009.1
20260903004542 86 37 4.0 7.0 0.00 0.00 0.00 73 1009.1
20260903004041 86 124 3.0 10.0 0.00 0.00 0.00 73 1009.0
20260903003529 86 32 3.0 10.0 0.00 0.00 0.00 73 1009.0
20260903003037 86 13 5.0 9.0 0.00 0.00 0.00 73 1008.9
20260903002517 86 82 4.0 7.0 0.00 0.00 0.00 73 1008.9
20260903002030 86 75 5.0 10.0 0.00 0.00 0.00 74 1008.9
20260903001538 86 91 5.0 10.0 0.00 0.00 0.00 74 1009.0
20260903001019 86 81 3.0 6.0 0.00 0.00 0.00 75 1008.9
20260903000551 85 95 3.0 6.0 0.00 0.00 0.00 75 1009.0
20260903000032 85 101 3.0 6.0 0.00 0.00 0.00 76 1008.9
20260902235541 85 77 4.0 7.0 0.00 0.00 0.00 76 1009.0
20260902235022 85 70 3.0 8.0 0.00 0.00 0.00 76 1008.9
20260902234532 85 84 4.0 8.0 0.00 0.00 0.00 76 1008.8
20260902234041 85 99 3.0 6.0 0.00 0.00 0.00 76 1008.8
20260902233524 85 87 2.0 6.0 0.00 0.00 0.00 77 1008.8
20260902233031 85 101 3.0 6.0 0.00 0.00 0.00 77 1008.9
20260902232517 84 92 3.0 9.0 0.00 0.00 0.00 78 1008.9
20260902232043 84 57 4.0 9.0 0.00 0.00 0.00 77 1008.8
20260902231523 84 122 1.0 5.0 0.00 0.00 0.00 78 1008.9
20260902231033 84 82 3.0 5.0 0.00 0.00 0.00 79 1008.9
20260902230542 83 77 3.0 7.0 0.00 0.00 0.00 79 1008.9
20260902230021 83 84 3.0 7.0 0.00 0.00 0.00 80 1008.8
20260902225529 83 91 2.0 9.0 0.00 0.00 0.00 80 1008.8
20260902225037 83 86 3.0 9.0 0.00 0.00 0.00 80 1008.9
20260902224516 83 63 3.0 5.0 0.00 0.00 0.00 80 1008.8
20260902224024 83 132 1.0 5.0 0.00 0.00 0.00 80 1008.8
20260902223533 83 65 3.0 5.0 0.00 0.00 0.00 80 1008.8
20260902223040 83 94 2.0 6.0 0.00 0.00 0.00 81 1008.7
20260902222522 83 105 2.0 6.0 0.00 0.00 0.00 81 1008.8
20260902222032 83 102 2.0 5.0 0.00 0.00 0.00 81 1008.8
20260902221541 83 125 1.0 3.0 0.00 0.00 0.00 81 1008.8
20260902221023 82 132 1.0 7.0 0.00 0.00 0.00 82 1008.7
20260902220530 82 45 3.0 7.0 0.00 0.00 0.00 82 1008.7
20260902220036 82 94 2.0 5.0 0.00 0.00 0.00 82 1008.8
20260902215519 82 22 1.0 6.0 0.00 0.00 0.00 82 1008.6
20260902215027 82 160 2.0 6.0 0.00 0.00 0.00 82 1008.7
20260902214558 82 169 1.0 5.0 0.00 0.00 0.00 83 1008.5
20260902214020 82 137 1.0 5.0 0.00 0.00 0.00 83 1008.6
20260902213529 82 154 0.0 3.0 0.00 0.00 0.00 83 1008.6
20260902213015 82 150 1.0 3.0 0.00 0.00 0.00 83 1008.5
20260902212518 81 184 0.0 3.0 0.00 0.00 0.00 83 1008.5
20260902212028 81 114 1.0 3.0 0.00 0.00 0.00 83 1008.4
20260902211537 81 174 0.0 3.0 0.00 0.00 0.00 83 1008.3
20260902211021 81 174 1.0 3.0 0.00 0.00 0.00 83 1008.3
20260902210530 81 174 0.0 2.0 0.00 0.00 0.00 83 1008.3
20260902210037 81 154 0.0 3.0 0.00 0.00 0.00 83 1008.2
20260902205518 81 212 1.0 2.0 0.00 0.00 0.00 82 1008.2
20260902205024 81 136 0.0 2.0 0.00 0.00 0.00 82 1008.2
20260902204515 81 110 0.0 2.0 0.00 0.00 0.00 82 1008.2
20260902204042 81 86 1.0 2.0 0.00 0.00 0.00 82 1008.2
20260902203525 81 161 0.0 2.0 0.00 0.00 0.00 82 1008.1
20260902203054 81 146 0.0 2.0 0.00 0.00 0.00 82 1008.2
20260902202541 81 122 0.0 2.0 0.00 0.00 0.00 82 1008.2
20260902202023 81 133 0.0 3.0 0.00 0.00 0.00 82 1008.1
20260902201532 81 117 0.0 3.0 0.00 0.00 0.00 82 1008.1
20260902201034 81 134 0.0 3.0 0.00 0.00 0.00 82 1008.1
20260902200518 81 136 1.0 2.0 0.00 0.00 0.00 82 1008.1
20260902200026 81 111 0.0 5.0 0.00 0.00 0.00 81 1008.0
20260902195535 81 24 1.0 5.0 0.00 0.00 0.00 81 1008.1
20260902195019 81 120 0.0 1.0 0.00 0.00 0.00 81 1008.1
20260902194549 81 108 0.0 1.0 0.00 0.00 0.00 81 1008.1
20260902194038 81 108 0.0 2.0 0.00 0.00 0.00 81 1007.9
20260902193542 82 108 1.0 2.0 0.00 0.00 0.00 81 1008.0
20260902193023 82 108 0.0 4.0 0.00 0.00 0.00 81 1007.9
20260902192531 82 100 1.0 4.0 0.00 0.00 0.00 81 1008.0
20260902192102 82 110 0.0 4.0 0.00 0.00 0.00 81 1007.9
20260902191543 82 78 1.0 3.0 0.00 0.00 0.00 81 1007.8
20260902191031 82 175 1.0 2.0 0.00 0.00 0.00 81 1007.8
20260902190541 82 116 1.0 3.0 0.00 0.00 0.00 81 1007.9
20260902190021 82 96 1.0 3.0 0.00 0.00 0.00 81 1008.1
20260902185526 82 122 0.0 2.0 0.00 0.00 0.00 81 1008.1
20260902185035 82 138 0.0 2.0 0.00 0.00 0.00 81 1008.1
20260902184516 82 139 0.0 2.0 0.00 0.00 0.00 81 1008.1
20260902184046 82 176 1.0 3.0 0.00 0.00 0.00 81 1008.2
20260902183537 82 108 1.0 3.0 0.00 0.00 0.00 81 1008.2
20260902183016 82 120 0.0 2.0 0.00 0.00 0.00 81 1008.2
20260902182516 82 139 0.0 2.0 0.00 0.00 0.00 80 1008.3
20260902182025 82 98 1.0 2.0 0.00 0.00 0.00 80 1008.3
20260902181528 82 99 1.0 2.0 0.00 0.00 0.00 81 1008.2
20260902181027 82 115 1.0 2.0 0.00 0.00 0.00 81 1008.3
20260902180538 82 101 1.0 3.0 0.00 0.00 0.00 81 1008.4
20260902180018 82 90 1.0 3.0 0.00 0.00 0.00 81 1008.3
20260902175527 82 29 1.0 4.0 0.00 0.00 0.00 80 1008.4
20260902175036 82 63 1.0 4.0 0.00 0.00 0.00 81 1008.5
20260902174518 82 98 1.0 3.0 0.00 0.00 0.00 80 1008.5
20260902174023 82 94 2.0 4.0 0.00 0.00 0.00 80 1008.5
20260902173530 82 94 2.0 4.0 0.00 0.00 0.00 80 1008.4
20260902173038 82 10 2.0 4.0 0.00 0.00 0.00 80 1008.4
20260902172520 82 87 1.0 4.0 0.00 0.00 0.00 79 1008.5
20260902172028 82 86 2.0 4.0 0.00 0.00 0.00 79 1008.5
20260902171558 82 89 2.0 4.0 0.00 0.00 0.00 79 1008.6
20260902171040 82 95 1.0 3.0 0.00 0.00 0.00 78 1008.6
20260902170527 82 119 2.0 5.0 0.00 0.00 0.00 78 1008.6
20260902170030 82 79 2.0 5.0 0.00 0.00 0.00 78 1008.7
20260902165540 82 67 3.0 6.0 0.00 0.00 0.00 77 1008.7
20260902165021 82 105 1.0 4.0 0.00 0.00 0.00 77 1008.7
20260902164529 82 80 2.0 4.0 0.00 0.00 0.00 77 1008.7
20260902164039 82 96 1.0 6.0 0.00 0.00 0.00 77 1008.6
20260902163523 82 88 2.0 8.0 0.00 0.00 0.00 77 1008.7
20260902163029 82 103 2.0 8.0 0.00 0.00 0.00 78 1008.8
20260902162534 82 65 3.0 8.0 0.00 0.00 0.00 78 1008.8
20260902162017 81 27 3.0 5.0 0.00 0.00 0.00 80 1008.9
20260902161103 81 161 0.0 0.0 0.00 0.00 0.00 82 1008.9
20260902160526 81 161 0.0 0.0 0.00 0.00 0.00 83 1009.1